Wind_Speed
16 18 20 21 23 25 26 27 29 29 30 31 31 30 30 28 25 25 25 25 25 26 26 25 24 23 23 22 22 20 19 18 21 23 24 21 18 15 13 17 18 20 22 20 12 11 8
20 21 23 24 26 28 30 30 30 30 31 33 35 35 36 33 32 30 28 26 26 26 27 26 26 25 24 23 24 26 24 20 20 21 22 22 24 24 22 17 17 23 24 21 13 11 10
23 25 27 30 33 35 36 34 34 33 33 33 33 37 39 39 36 35 35 32 29 28 27 27 26 25 24 24 25 29 27 25 22 20 20 25 24 24 24 17 18 19 21 22 12 11 7
28 30 33 36 37 37 38 37 34 31 31 33 37 42 43 42 40 39 38 37 36 33 30 29 27 26 25 27 25 27 27 27 27 24 24 24 25 25 24 22 16 12 13 11 12 9 7
33 36 38 40 41 42 41 39 36 34 33 33 33 36 42 46 42 42 39 39 39 36 35 31 29 29 28 26 26 25 24 28 29 29 28 26 23 24 23 21 20 13 9 11 8 6 11
35 37 40 42 44 43 42 41 40 37 37 38 41 40 38 40 42 39 40 38 39 38 36 34 32 30 30 27 29 28 26 25 27 30 30 27 24 22 20 20 20 18 18 20 15 9 12
36 39 42 42 44 44 44 44 44 43 38 37 33 34 40 36 38 37 35 35 36 37 37 37 34 33 29 29 29 30 30 28 28 28 27 29 27 22 20 19 22 26 23 19 19 13 15
36 40 43 44 45 45 46 47 48 43 34 30 28 28 34 39 35 31 32 30 34 36 37 37 38 35 31 32 30 31 31 31 30 27 26 26 23 25 27 25 26 27 26 22 20 17 22
38 41 45 45 45 45 47 49 45 31 28 26 27 24 25 25 35 32 32 32 31 32 34 35 35 37 37 34 32 30 30 32 32 32 30 27 24 29 33 31 29 27 26 25 25 23 23
39 43 45 44 44 44 47 48 36 31 29 27 27 26 25 23 23 29 28 29 27 28 29 32 33 35 34 35 34 31 31 30 32 33 33 31 31 30 28 30 32 30 24 28 31 30 26
40 44 45 44 42 43 46 40 32 30 28 27 31 28 27 23 19 19 23 26 26 25 27 27 30 32 33 33 35 33 34 32 32 33 34 33 34 32 31 28 30 29 26 29 35 35 31
38 42 43 43 43 44 42 32 29 31 28 32 35 34 19 19 13 14 17 19 22 22 25 23 23 24 28 30 33 31 33 33 33 31 31 31 33 35 34 34 35 32 35 34 37 38 36
39 44 44 42 43 44 36 29 27 29 26 29 34 24 6 4 5 12 15 17 20 21 20 16 20 23 23 24 30 28 32 32 33 35 37 36 35 34 37 38 37 36 35 35 37 38 35
41 44 45 41 42 39 32 29 25 27 24 26 26 20 7 2 4 10 19 23 27 26 22 22 18 20 22 26 25 23 23 25 33 35 37 37 37 38 38 38 41 40 38 36 35 37 42
39 40 39 38 39 34 29 28 26 25 23 22 22 20 10 1 5 17 24 30 27 27 22 22 18 16 23 20 20 19 26 27 31 33 36 36 35 38 39 40 41 40 39 39 40 40 40
38 39 39 37 35 31 27 26 26 22 21 21 23 22 19 3 6 19 24 31 29 28 24 21 18 17 17 20 24 24 27 29 32 33 37 36 34 37 37 39 43 44 38 38 40 42 41
36 39 35 34 30 27 26 26 25 23 21 20 21 19 18 15 2 2 17 23 24 24 24 21 18 14 13 13 23 26 27 31 33 33 33 34 31 33 34 37 40 43 43 46 45 44 45
31 38 32 31 26 24 24 23 20 21 21 22 18 18 16 17 12 6 2 12 10 23 24 24 24 22 21 19 23 21 18 16 17 21 24 28 31 29 33 36 39 40 41 47 51 47 47
28 33 29 28 25 23 23 22 20 19 18 18 17 18 17 13 10 6 2 4 3 8 16 16 16 18 21 23 27 25 19 18 19 20 25 29 32 33 39 41 42 43 42 44 46 50 50
28 27 26 26 24 23 23 22 21 20 20 20 16 15 17 14 14 13 8 3 8 6 11 13 12 13 17 20 25 28 24 22 22 22 25 27 30 33 37 46 52 48 44 46 49 47 48
28 24 24 24 24 25 26 25 21 21 20 19 17 15 13 14 14 13 11 9 5 4 5 7 10 13 12 12 12 12 14 13 16 16 16 19 21 28 34 38 47 54 57 54 57 55 56
25 22 23 22 22 24 24 22 21 21 21 19 18 16 15 14 11 10 8 7 6 5 5 7 9 10 11 12 16 16 15 15 17 18 20 22 28 31 31 33 36 48 55 57 59 60 60
22 21 21 20 20 22 22 20 21 19 19 21 20 20 17 14 12 10 8 8 8 10 10 10 12 17 18 19 19 21 21 22 20 23 27 28 30 34 40 39 40 41 44 57 62 67 65
19 19 18 18 19 20 21 20 19 17 19 22 22 20 19 16 13 9 8 6 5 5 6 7 9 11 15 21 24 26 28 24 25 27 28 30 32 32 36 39 43 44 44 48 63 70 69
17 19 16 16 18 19 20 19 19 19 20 23 21 21 20 17 13 7 2 2 6 9 13 13 13 11 12 14 18 19 17 19 21 26 27 26 28 30 37 43 47 44 42 45 56 71 74
12 17 14 15 16 18 18 20 21 19 20 21 20 21 19 18 16 11 5 8 13 16 10 9 11 11 11 12 11 12 12 14 19 21 18 20 26 35 40 42 42 38 38 41 47 67 76
10 15 13 12 14 17 18 20 21 21 20 19 18 20 20 17 14 10 11 12 11 9 9 7 5 7 11 9 9 9 10 12 15 17 17 18 23 30 29 29 29 28 31 32 39 47 67
9 14 11 10 12 12 15 18 21 22 20 18 16 18 20 16 15 16 16 14 11 9 11 10 10 9 15 12 9 9 11 12 14 16 20 20 23 24 25 25 26 28 26 28 34 35 42
8 13 10 7 9 8 12 16 20 22 20 16 15 15 15 13 14 15 16 14 14 13 14 14 13 12 12 16 16 13 11 12 14 13 17 20 24 22 24 21 21 26 29 32 28 34 40
Wind_Direction
310 313 312 310 306 303 300 296 293 291 288 287 286 284 282 277 270 263 254 250 245 241 238 236 232 227 225 223 228 228 223 217 216 215 215 217 214 216 219 225 218 213 219 222 207 157 156
329 329 329 328 325 320 316 313 304 297 292 286 280 278 277 273 270 263 259 252 247 242 238 234 232 227 221 218 221 224 223 219 216 218 216 215 216 218 216 222 224 221 222 225 206 185 173
338 334 331 328 326 323 319 313 305 301 290 281 271 266 264 263 262 260 256 252 251 245 240 235 232 227 221 211 219 223 220 222 220 217 216 216 218 216 226 224 229 227 230 237 226 174 110
338 337 334 331 327 325 323 319 315 303 292 282 276 271 270 264 259 252 251 252 246 246 242 238 233 228 223 213 211 223 219 220 220 218 217 222 218 221 223 222 228 226 228 242 193 193 194
339 337 333 332 331 328 325 321 315 304 293 291 290 282 271 271 268 260 251 246 247 242 240 238 234 230 227 217 218 217 218 214 218 219 218 219 219 219 220 222 224 220 213 217 206 187 209
334 332 333 333 330 328 325 322 316 309 301 291 286 282 278 269 265 261 258 249 243 242 237 236 234 230 226 221 218 216 216 215 215 218 221 222 217 221 218 219 220 210 204 201 174 182 192
332 333 333 333 332 329 326 324 324 322 319 309 297 276 266 263 262 256 253 252 243 240 237 232 234 233 229 225 221 218 217 220 217 217 216 220 217 215 214 212 210 216 212 214 213 194 199
331 331 333 335 333 331 329 329 330 330 322 307 296 280 269 257 257 252 247 243 241 235 235 234 232 232 231 228 223 222 217 219 222 220 218 218 213 213 215 212 212 212 211 208 214 219 234
330 332 336 336 333 332 331 332 336 332 326 315 309 304 293 282 256 250 242 235 236 233 230 230 231 230 230 229 226 224 221 217 219 221 220 217 211 211 213 211 211 216 210 203 200 215 227
333 336 336 337 335 334 334 336 338 332 329 323 315 304 292 288 278 253 242 235 230 227 228 226 227 227 225 227 227 222 222 220 221 220 222 219 222 218 220 218 215 213 211 202 198 217 229
334 337 336 337 335 335 338 340 339 335 335 334 326 307 293 284 272 247 230 224 221 218 220 221 223 223 223 222 224 221 224 221 219 217 219 220 221 223 223 222 224 212 208 215 210 214 222
334 336 337 339 337 338 343 342 341 339 335 337 335 322 282 268 261 227 212 210 212 210 208 211 219 220 220 221 223 222 224 224 223 221 219 220 227 228 225 223 225 221 215 209 218 219 223
339 340 341 341 339 342 347 343 341 341 341 340 349 356 339 248 207 206 176 183 180 175 187 185 200 209 213 214 219 218 221 222 222 221 222 220 222 228 231 229 229 230 228 221 216 225 232
342 341 343 340 340 346 349 345 346 349 344 343 359 4 23 13 174 164 141 160 172 169 183 185 195 205 214 218 221 216 217 221 223 224 225 223 224 226 229 232 234 230 229 231 232 226 229
342 342 342 342 343 351 351 350 354 359 2 3 2 6 9 104 164 155 160 171 175 167 190 202 167 185 206 208 220 214 226 225 223 224 226 226 224 229 229 229 229 233 235 232 230 232 236
342 343 342 342 346 355 355 358 2 1 6 10 15 15 11 96 185 165 174 183 181 171 187 205 195 196 216 223 223 220 222 230 229 229 229 228 224 228 228 230 232 230 230 232 234 235 237
344 342 342 342 348 358 359 1 5 6 4 10 24 17 31 37 89 156 178 189 202 188 190 190 199 218 232 235 240 245 240 231 237 236 235 232 230 226 224 229 234 233 229 231 232 235 236
344 339 340 343 350 354 354 357 4 8 9 6 13 6 22 37 31 36 178 225 215 214 215 221 229 228 226 241 248 254 253 241 235 235 237 246 241 225 225 223 229 233 234 235 236 230 234
340 340 339 345 350 352 351 348 350 347 356 0 358 358 355 12 4 329 279 292 191 173 224 230 226 224 231 225 233 251 251 247 242 247 239 229 230 224 212 217 223 228 228 232 237 237 232
337 338 341 345 348 347 341 343 341 338 338 338 335 344 339 344 335 329 320 298 264 268 232 247 249 247 236 235 235 245 262 265 264 261 261 257 251 242 229 218 218 221 222 229 234 237 237
337 338 344 345 347 346 339 338 342 348 345 343 342 334 330 318 321 320 320 315 311 294 248 228 214 217 206 210 208 211 229 247 257 261 258 264 267 261 250 238 226 225 224 227 237 239 239
336 334 343 346 350 351 349 352 356 353 348 349 352 353 351 343 337 325 316 304 323 316 277 239 230 217 218 223 219 227 233 244 257 261 261 268 260 260 263 257 244 231 230 227 231 235 237
336 328 341 344 349 351 352 355 359 2 5 3 0 358 356 349 339 331 326 325 332 334 325 306 273 260 261 258 256 252 257 266 271 274 274 277 270 261 257 255 258 250 240 232 225 230 234
331 322 336 342 348 352 351 353 360 358 358 359 2 5 4 0 353 343 348 357 356 353 344 319 301 282 275 270 266 266 267 270 274 273 273 272 264 256 258 260 260 264 265 246 228 223 227
330 315 329 336 348 349 348 351 356 354 351 354 1 5 7 8 0 344 333 8 334 324 316 297 301 296 291 278 262 255 252 261 272 274 268 261 260 270 269 268 264 263 258 251 232 223 224
333 309 316 331 346 344 346 350 356 360 356 354 358 4 3 8 11 20 22 332 325 318 323 310 292 289 294 294 285 279 275 280 282 272 264 266 276 278 277 283 270 248 244 247 238 227 221
335 303 311 329 345 349 351 357 1 2 4 3 359 4 8 10 20 25 6 343 351 2 355 357 332 319 314 307 307 296 293 290 277 264 253 271 282 285 284 272 253 247 249 250 245 238 224
337 298 302 326 346 358 1 10 11 7 4 7 5 7 12 13 14 16 17 16 20 20 29 34 29 16 19 7 349 315 306 303 294 277 250 264 281 284 281 269 259 254 248 255 252 241 237
343 296 293 314 348 5 6 15 18 15 8 4 3 8 9 8 16 25 33 30 36 37 40 39 38 33 31 34 23 4 341 319 308 289 267 275 280 291 287 277 265 255 262 254 249 237 241
Height
5876 5873 5870 5867 5864 5861 5858 5855 5852 5850 5848 5847 5845 5844 5843 5842 5842 5842 5842 5841 5842 5843 5845 5847 5850 5853 5856 5859 5860 5862 5864 5866 5868 5870 5873 5875 5879 5880 5883 5884 5887 5887 5887 5886 5891 5892 5896
5873 5870 5867 5864 5860 5856 5852 5849 5846 5843 5840 5838 5837 5836 5834 5834 5834 5834 5835 5835 5835 5836 5838 5840 5843 5846 5850 5854 5854 5856 5859 5862 5864 5867 5870 5873 5874 5875 5877 5881 5882 5883 5885 5886 5889 5891 5894
5869 5866 5862 5858 5854 5849 5845 5841 5837 5833 5831 5827 5826 5824 5823 5822 5823 5824 5825 5827 5829 5829 5831 5834 5836 5839 5843 5847 5848 5850 5854 5858 5860 5863 5865 5866 5869 5873 5874 5878 5879 5881 5883 5884 5886 5890 5892
5867 5862 5857 5852 5847 5842 5836 5832 5828 5824 5820 5817 5815 5813 5811 5811 5811 5812 5815 5817 5819 5822 5824 5827 5830 5833 5836 5838 5842 5845 5849 5852 5855 5859 5860 5862 5865 5867 5871 5874 5878 5881 5883 5883 5886 5889 5891
5862 5857 5851 5845 5839 5833 5827 5822 5818 5814 5811 5808 5805 5802 5800 5800 5800 5801 5803 5805 5809 5812 5816 5819 5823 5826 5829 5834 5837 5840 5842 5846 5850 5853 5855 5857 5862 5864 5868 5871 5876 5879 5882 5881 5884 5887 5891
5856 5850 5844 5838 5832 5825 5820 5814 5808 5804 5800 5796 5793 5790 5787 5787 5787 5788 5791 5795 5798 5803 5807 5812 5815 5820 5823 5828 5829 5834 5837 5841 5844 5846 5851 5855 5859 5861 5865 5869 5874 5876 5876 5876 5879 5883 5886
5851 5845 5838 5831 5824 5817 5811 5804 5797 5792 5787 5783 5778 5775 5772 5773 5774 5775 5779 5784 5790 5795 5798 5802 5807 5811 5816 5820 5824 5827 5831 5835 5838 5842 5846 5849 5854 5859 5861 5865 5867 5869 5873 5877 5880 5879 5878
5845 5838 5831 5824 5817 5810 5803 5795 5787 5780 5774 5769 5765 5762 5759 5760 5762 5763 5767 5772 5776 5783 5788 5793 5797 5803 5808 5811 5816 5820 5825 5830 5833 5838 5840 5845 5851 5854 5855 5860 5862 5864 5869 5876 5878 5875 5875
5841 5833 5826 5819 5811 5803 5795 5787 5779 5772 5767 5762 5758 5754 5751 5748 5750 5752 5755 5760 5766 5773 5778 5784 5788 5793 5799 5804 5809 5814 5818 5822 5827 5831 5836 5840 5845 5845 5848 5853 5856 5860 5866 5871 5872 5869 5872
5836 5829 5821 5814 5805 5797 5788 5780 5772 5766 5760 5755 5750 5746 5743 5740 5741 5742 5746 5752 5758 5763 5769 5774 5780 5785 5790 5795 5802 5807 5811 5817 5822 5826 5830 5835 5837 5841 5846 5850 5852 5855 5863 5865 5865 5865 5868
5834 5826 5817 5808 5800 5791 5782 5774 5768 5761 5755 5750 5744 5738 5734 5732 5732 5734 5738 5743 5750 5755 5761 5767 5771 5776 5781 5787 5793 5800 5804 5809 5813 5817 5823 5829 5832 5837 5841 5845 5848 5853 5857 5861 5860 5861 5863
5826 5818 5811 5804 5796 5787 5777 5769 5763 5757 5750 5744 5737 5726 5721 5723 5725 5727 5732 5739 5746 5751 5755 5761 5765 5769 5775 5780 5785 5792 5796 5801 5806 5812 5817 5823 5827 5831 5835 5838 5840 5847 5849 5853 5856 5857 5861
5824 5816 5808 5800 5793 5783 5774 5767 5761 5754 5747 5740 5732 5722 5718 5720 5721 5724 5728 5735 5742 5744 5749 5755 5760 5765 5769 5773 5777 5782 5787 5792 5797 5802 5808 5814 5819 5823 5827 5833 5836 5841 5845 5848 5854 5856 5860
5821 5814 5806 5797 5789 5780 5772 5765 5759 5752 5746 5740 5732 5725 5722 5721 5721 5724 5726 5734 5736 5739 5742 5747 5755 5759 5763 5766 5771 5776 5780 5781 5788 5796 5801 5809 5814 5817 5821 5825 5828 5834 5839 5845 5849 5852 5854
5815 5807 5799 5793 5787 5778 5771 5765 5758 5752 5745 5740 5734 5728 5724 5722 5723 5725 5727 5731 5733 5736 5740 5743 5747 5752 5756 5761 5766 5770 5771 5778 5783 5788 5796 5802 5807 5810 5816 5820 5823 5827 5832 5837 5839 5843 5845
5812 5805 5799 5792 5784 5777 5771 5765 5759 5752 5747 5742 5736 5729 5726 5723 5723 5724 5728 5731 5732 5734 5738 5743 5746 5749 5753 5756 5759 5762 5766 5772 5777 5782 5789 5794 5800 5803 5808 5810 5816 5821 5824 5826 5831 5834 5837
5810 5802 5796 5790 5783 5776 5771 5765 5759 5754 5749 5744 5739 5735 5731 5728 5727 5727 5729 5733 5736 5736 5737 5740 5743 5748 5751 5754 5754 5756 5762 5767 5770 5776 5782 5787 5793 5799 5800 5802 5806 5811 5812 5816 5823 5825 5830
5807 5801 5795 5788 5782 5776 5771 5766 5760 5755 5751 5747 5742 5740 5735 5732 5733 5732 5732 5734 5735 5736 5737 5738 5740 5743 5747 5749 5750 5753 5756 5761 5765 5769 5775 5778 5784 5790 5795 5795 5798 5800 5805 5808 5812 5817 5821
5805 5799 5793 5787 5780 5775 5770 5766 5760 5756 5753 5749 5745 5740 5738 5736 5733 5734 5734 5732 5732 5735 5735 5735 5737 5740 5742 5747 5748 5747 5750 5754 5757 5760 5764 5768 5771 5777 5784 5787 5788 5791 5795 5799 5804 5807 5814
5801 5794 5790 5785 5779 5774 5769 5765 5759 5755 5751 5748 5745 5741 5738 5736 5733 5731 5731 5732 5731 5731 5731 5733 5735 5738 5740 5741 5743 5744 5745 5748 5751 5754 5757 5759 5761 5766 5771 5773 5776 5781 5786 5788 5793 5798 5802
5799 5794 5789 5784 5778 5773 5768 5763 5758 5753 5749 5747 5743 5739 5737 5733 5732 5730 5729 5728 5728 5728 5729 5729 5730 5731 5733 5735 5738 5741 5743 5744 5745 5747 5749 5751 5752 5754 5756 5761 5767 5770 5774 5778 5781 5786 5788
5796 5791 5786 5782 5777 5772 5767 5762 5757 5752 5748 5745 5740 5737 5734 5731 5730 5728 5727 5726 5726 5727 5727 5728 5729 5730 5732 5733 5735 5737 5738 5739 5739 5740 5742 5743 5745 5745 5745 5747 5752 5760 5765 5770 5772 5770 5770
5793 5789 5784 5780 5776 5772 5767 5761 5756 5752 5748 5744 5740 5736 5732 5730 5728 5726 5726 5725 5725 5725 5725 5725 5726 5727 5727 5728 5729 5730 5731 5731 5732 5732 5731 5732 5733 5733 5733 5734 5739 5750 5750 5752 5758 5754 5757
5789 5786 5782 5778 5774 5771 5767 5762 5756 5752 5748 5745 5740 5736 5732 5728 5726 5724 5723 5723 5723 5723 5723 5722 5721 5721 5721 5720 5720 5721 5721 5722 5722 5721 5721 5721 5721 5720 5719 5719 5725 5731 5732 5733 5735 5737 5743
5786 5783 5780 5776 5773 5770 5766 5761 5756 5751 5748 5744 5740 5736 5731 5728 5725 5723 5722 5722 5721 5721 5719 5718 5717 5716 5715 5714 5713 5713 5714 5713 5712 5710 5709 5711 5710 5709 5708 5705 5710 5715 5711 5709 5714 5719 5727
5783 5780 5778 5775 5771 5768 5765 5760 5756 5751 5747 5743 5739 5735 5731 5728 5725 5723 5722 5722 5721 5718 5716 5713 5712 5711 5710 5708 5707 5705 5704 5704 5702 5701 5701 5702 5702 5700 5695 5692 5691 5694 5696 5695 5699 5697 5710
5778 5776 5775 5772 5769 5768 5765 5760 5755 5750 5746 5743 5739 5735 5731 5728 5726 5724 5723 5720 5718 5715 5713 5711 5709 5708 5706 5703 5701 5699 5698 5697 5695 5695 5695 5694 5694 5691 5685 5681 5682 5684 5686 5687 5685 5692 5696
5775 5773 5772 5770 5768 5766 5764 5760 5755 5750 5746 5743 5740 5735 5732 5729 5726 5724 5721 5719 5717 5715 5714 5712 5709 5707 5703 5700 5697 5694 5692 5691 5689 5690 5689 5688 5686 5682 5677 5675 5674 5675 5676 5677 5678 5679 5682
5771 5770 5768 5767 5766 5765 5764 5760 5755 5750 5746 5742 5739 5736 5733 5730 5727 5724 5722 5720 5718 5716 5713 5711 5709 5707 5704 5701 5697 5692 5689 5687 5685 5684 5684 5684 5681 5678 5673 5670 5666 5666 5666 5666 5667 5669 5669